Location: Luna
(33.8188°N, 108.9564°W)
Time: 14:40:28
(UTC+00:00)

N. Korean satellite - Visible Passes

Search period start: 30 November 2022 00:00
Search period end: 10 December 2022 00:00
Orbit: 421 x 454 km, 97.3° (Epoch: 29 November)

Date Brightness Start Highest point End Pass type
(mag) Time Alt. Az. Time Alt. Az. Time Alt. Az.
30 Nov 6.7 12:22:33 10° NNE 12:25:56 66° E 12:29:17 10° S visible
01 Dec 9.4 11:44:48 10° NE 11:47:05 17° E 11:49:22 10° SE visible
01 Dec 7.8 13:17:02 10° NNW 13:19:28 19° WNW 13:21:53 10° WSW visible
02 Dec 6.2 12:37:29 10° N 12:40:52 70° WNW 12:44:12 10° SSW visible
03 Dec 9.5 00:36:07 10° SW 00:38:34 19° W 00:41:03 10° NW visible
03 Dec 8.5 11:59:06 10° NE 12:02:02 27° E 12:04:56 10° SSE visible
03 Dec 8.3 13:32:55 10° NW 13:34:13 12° WNW 13:35:30 10° W visible
04 Dec 6.8 12:52:26 10° N 12:55:38 40° WNW 12:58:47 10° SW visible
05 Dec 9.9 00:52:04 10° WSW 00:53:25 12° W 00:54:46 10° WNW visible
05 Dec 7.5 12:13:32 10° NNE 12:16:48 45° E 12:20:00 10° S visible
06 Dec 9.8 11:36:15 10° ENE 11:37:43 12° E 11:39:10 10° ESE visible
06 Dec 7.4 13:07:24 10° NNW 13:10:12 24° WNW 13:12:58 10° SW visible
07 Dec 6.4 12:28:00 10° NNE 12:31:23 80° ESE 12:34:42 10° S visible
08 Dec 9.1 11:49:48 10° NE 11:52:18 19° E 11:54:47 10° SE visible
08 Dec 8.0 13:22:30 10° NNW 13:24:36 16° WNW 13:26:41 10° WSW visible
09 Dec 6.3 12:42:29 10° N 12:45:47 58° WNW 12:49:02 10° SSW visible
